Regional Weather Roundup
Issued by NWS

Home | Current Version | Previous Version | Graphics & Text | Print | Product List | Glossary Off
Versions: 1 2 3 4 5 6 7 8 9 10 11 12 13 14 15 16 17 18 19 20 21 22 23 24 25 26 27 28 29 30 31 32 33 34 35 36 37 38 39 40 41 42 43 44 45 46 47 48 49 50

000
ASUS43 KTOP 261259
RWRKS

WEATHER ROUNDUP FOR KANSAS
NATIONAL WEATHER SERVICE GOODLAND KS
800 AM CDT TUE JUL 26 2016

NOTE:  "FAIR" INDICATES FEW OR NO CLOUDS BELOW 12,000 FEET WITH NO
SIGNIFICANT WEATHER AND/OR OBSTRUCTIONS TO VISIBILITY.

KSZ001>006-013>018-027>032-041>047-261400-
NORTHWEST KANSAS

CITY           SKY/WX    TMP DP  RH WIND       PRES   REMARKS
GOODLAND       CLOUDY    68  66  93 S14       30.14R FOG
HAYS           CLOUDY    70  63  78 SE8       30.10S VSB 1/4
HILL CITY      FOG       67  67 100 S5        30.11S VSB 3/4
RUSSELL        CLOUDY    70  69  97 E7        30.09R
$$

KSZ061>065-074>080-084>089-261400-
SOUTHWEST KANSAS

CITY           SKY/WX    TMP DP  RH WIND       PRES   REMARKS
DODGE CITY     FOG       68  68 100 CALM      30.11R VSB<1/4
ELKHART          N/A     68  66  93 S6          N/A
GARDEN CITY    CLOUDY    70  69  97 S6        30.12R FOG
GREAT BEND     PTSUNNY   70  63  78 E5        30.09S
LIBERAL        CLOUDY    72  66  83 E7        30.12R
$$

KSZ066>073-081>083-090>101-261400-
SOUTHEAST KANSAS

CITY           SKY/WX    TMP DP  RH WIND       PRES   REMARKS
CHANUTE        CLOUDY    76  72  87 E8        30.03S
COFFEYVILLE    CLOUDY    76  74  93 NE7       30.01R
HUTCHINSON     PTSUNNY   73  70  90 NE6       30.07S FOG
NEWTON         CLOUDY    73  72  96 NE7       30.07S
PARSONS          N/A    N/A N/A N/A MISG      30.03S
WICHITA INTL   CLOUDY    75  72  90 NE7       30.04S FOG
WICHITA JABRA  CLOUDY    72  72 100 NE8       30.05S FOG
WINFIELD       CLOUDY    77  73  87 N7        30.03S
$$

KSZ007>012-019>026-033>040-048>060-102>105-261400-
NORTHEAST KANSAS

CITY           SKY/WX    TMP DP  RH WIND       PRES   REMARKS
CONCORDIA      SUNNY     67  64  90 SE5       30.09R
EMPORIA        MOSUNNY   74  71  91 NE7       30.06S
LAWRENCE       SUNNY     72  69  90 CALM      30.07S
MANHATTAN      MOSUNNY   70  67  90 NE3       30.08R
OLATHE IND     SUNNY     74  70  87 NE5       30.08R
OLATHE EXE     SUNNY     74  69  85 NE5       30.07S
SALINA         MOSUNNY   72  68  87 N3        30.08S
TOPEKA BILLARD SUNNY     72  68  87 CALM      30.07S
TOPEKA FORBES  SUNNY     75  69  81 CALM      30.07S
$$



USA.gov is the U.S. government's official web portal to all federal, state and local government web resources and services.